Precipitable_Water
1.19 1.19 1.21 1.20 1.16 1.09 1.07 1.05 0.98 0.94 0.92 0.95 0.96 0.94 0.91 0.91 0.90 0.89 0.87 0.85 0.81 0.80 0.78 0.77 0.77 0.76 0.75 0.73 0.71 0.70 0.70 0.71 0.73 0.71 0.69 0.67 0.67 0.67 0.67 0.65 0.61 0.60 0.60 0.60 0.60 0.57 0.55 0.55 0.58 0.61 0.65 0.65 0.63 0.62 0.60 0.61 0.62 0.63 0.65 0.67 0.65 0.64 0.58 0.53 0.49 0.46 0.49 0.56 0.53 0.53 0.60 0.63 0.60 0.63 0.63 0.67 0.69 0.72 0.71 0.70 0.69 0.68 0.70 0.69 0.68
1.16 1.17 1.20 1.19 1.20 1.16 1.11 1.06 1.01 0.97 0.95 0.98 0.95 0.94 0.91 0.92 0.93 0.92 0.86 0.85 0.86 0.87 0.83 0.81 0.82 0.81 0.79 0.77 0.76 0.74 0.74 0.73 0.74 0.73 0.71 0.71 0.71 0.72 0.71 0.70 0.69 0.67 0.66 0.62 0.61 0.61 0.60 0.60 0.63 0.64 0.65 0.65 0.64 0.64 0.62 0.62 0.62 0.64 0.66 0.67 0.64 0.62 0.61 0.56 0.54 0.50 0.49 0.56 0.56 0.61 0.63 0.69 0.61 0.67 0.66 0.67 0.70 0.74 0.72 0.72 0.73 0.72 0.70 0.72 0.71
1.16 1.16 1.16 1.16 1.17 1.21 1.15 1.07 1.05 1.03 0.97 0.93 0.92 0.95 0.91 0.92 0.94 0.90 0.87 0.84 0.89 0.91 0.86 0.85 0.86 0.83 0.79 0.79 0.79 0.79 0.79 0.79 0.79 0.79 0.79 0.79 0.78 0.78 0.77 0.76 0.74 0.73 0.71 0.70 0.69 0.67 0.64 0.64 0.66 0.69 0.70 0.67 0.67 0.67 0.67 0.65 0.66 0.65 0.66 0.67 0.65 0.64 0.65 0.63 0.59 0.55 0.55 0.58 0.63 0.61 0.65 0.68 0.65 0.65 0.68 0.70 0.72 0.75 0.73 0.73 0.73 0.74 0.74 0.73 0.73
1.22 1.22 1.24 1.20 1.20 1.21 1.16 1.12 1.09 1.07 0.99 0.95 0.93 0.94 0.93 0.95 0.95 0.91 0.89 0.84 0.88 0.91 0.90 0.89 0.86 0.82 0.79 0.81 0.83 0.84 0.85 0.84 0.81 0.82 0.84 0.85 0.85 0.84 0.85 0.85 0.84 0.82 0.81 0.78 0.75 0.74 0.72 0.70 0.72 0.73 0.73 0.70 0.71 0.71 0.71 0.71 0.70 0.68 0.68 0.71 0.71 0.70 0.69 0.67 0.65 0.63 0.62 0.59 0.64 0.64 0.68 0.67 0.70 0.71 0.70 0.72 0.72 0.74 0.74 0.75 0.76 0.74 0.74 0.74 0.76
1.25 1.23 1.22 1.22 1.23 1.20 1.17 1.15 1.14 1.10 1.03 0.99 1.00 1.00 0.99 0.98 0.97 0.93 0.90 0.84 0.86 0.88 0.88 0.89 0.84 0.80 0.79 0.82 0.84 0.86 0.87 0.86 0.83 0.84 0.85 0.88 0.89 0.89 0.89 0.89 0.89 0.88 0.88 0.87 0.87 0.85 0.82 0.78 0.77 0.79 0.78 0.74 0.76 0.76 0.76 0.74 0.75 0.74 0.74 0.75 0.74 0.73 0.72 0.71 0.70 0.70 0.68 0.66 0.66 0.72 0.73 0.72 0.74 0.72 0.70 0.68 0.71 0.74 0.74 0.71 0.71 0.71 0.71 0.74 0.75
1.23 1.19 1.20 1.22 1.21 1.19 1.15 1.16 1.10 1.05 0.98 0.96 0.99 1.00 0.97 0.97 0.97 0.97 0.93 0.84 0.84 0.85 0.84 0.85 0.84 0.82 0.84 0.85 0.86 0.86 0.87 0.87 0.87 0.89 0.90 0.91 0.94 0.96 0.96 0.94 0.93 0.93 0.95 0.96 0.98 0.98 0.95 0.93 0.92 0.88 0.85 0.82 0.80 0.81 0.81 0.79 0.80 0.79 0.79 0.81 0.82 0.81 0.79 0.78 0.76 0.73 0.72 0.71 0.71 0.70 0.75 0.72 0.71 0.68 0.66 0.66 0.64 0.65 0.65 0.66 0.67 0.68 0.68 0.69 0.71
1.19 1.18 1.17 1.18 1.18 1.16 1.13 1.13 1.07 1.03 0.98 0.88 0.89 0.91 0.85 0.94 1.01 0.98 0.94 0.87 0.81 0.81 0.83 0.83 0.84 0.83 0.84 0.87 0.88 0.88 0.90 0.94 0.98 1.01 1.01 0.99 1.00 1.00 0.99 0.98 0.96 0.98 1.00 1.01 1.03 1.04 1.04 1.02 1.00 0.98 0.93 0.90 0.85 0.83 0.84 0.82 0.83 0.82 0.83 0.83 0.84 0.82 0.81 0.81 0.80 0.77 0.74 0.73 0.73 0.72 0.70 0.72 0.69 0.61 0.64 0.65 0.64 0.62 0.58 0.57 0.57 0.63 0.64 0.62 0.59
1.08 1.10 1.12 1.14 1.13 1.12 1.10 1.08 1.08 1.01 0.95 0.88 0.85 0.84 0.87 0.94 0.94 0.91 0.87 0.80 0.79 0.81 0.81 0.82 0.84 0.85 0.85 0.86 0.89 0.92 0.96 0.99 1.04 1.09 1.08 1.06 1.04 1.02 1.00 0.97 0.96 0.99 1.01 1.03 1.03 1.03 1.04 1.03 1.00 0.99 0.99 0.98 0.96 0.94 0.90 0.87 0.86 0.84 0.86 0.84 0.83 0.82 0.81 0.80 0.79 0.77 0.74 0.71 0.67 0.65 0.67 0.67 0.68 0.69 0.68 0.65 0.61 0.62 0.64 0.62 0.58 0.60 0.63 0.65 0.65
1.01 1.02 1.03 1.05 1.07 1.06 1.05 1.05 1.05 1.01 0.98 0.96 0.96 0.94 0.94 0.94 0.89 0.85 0.82 0.78 0.79 0.82 0.83 0.82 0.81 0.82 0.85 0.86 0.88 0.92 0.95 0.98 1.02 1.06 1.06 1.05 1.05 1.02 1.00 0.98 0.97 0.96 0.96 0.98 0.99 1.00 1.01 1.01 1.00 1.00 1.01 1.03 1.03 1.02 1.00 0.97 0.90 0.83 0.83 0.83 0.81 0.79 0.77 0.75 0.73 0.72 0.71 0.68 0.67 0.68 0.65 0.65 0.66 0.66 0.64 0.62 0.59 0.59 0.65 0.65 0.62 0.64 0.65 0.63 0.64
0.99 0.99 0.98 0.99 1.02 1.05 1.04 1.01 0.99 0.99 0.98 0.99 1.02 1.02 0.98 0.93 0.87 0.83 0.81 0.82 0.80 0.82 0.83 0.84 0.82 0.81 0.81 0.84 0.88 0.91 0.94 0.97 1.01 1.04 1.03 1.04 1.05 1.04 1.03 1.00 0.98 0.95 0.92 0.92 0.94 0.96 0.98 0.99 1.01 1.03 1.02 1.03 1.04 1.04 1.03 1.01 0.98 0.94 0.89 0.85 0.82 0.78 0.75 0.72 0.70 0.69 0.67 0.64 0.63 0.62 0.60 0.60 0.62 0.63 0.61 0.62 0.64 0.64 0.62 0.61 0.58 0.60 0.61 0.59 0.60
1.02 1.01 0.99 1.00 1.00 1.02 1.01 1.00 1.02 1.00 1.01 1.01 1.01 1.02 1.00 0.98 0.96 0.93 0.90 0.91 0.88 0.85 0.86 0.87 0.88 0.88 0.86 0.87 0.88 0.92 0.95 0.98 1.00 1.00 0.99 1.00 1.01 1.01 1.00 0.99 0.97 0.94 0.91 0.89 0.89 0.93 0.96 0.99 1.02 1.03 1.04 1.03 1.02 1.03 1.03 1.02 1.00 0.96 0.92 0.91 0.88 0.81 0.75 0.71 0.69 0.68 0.63 0.59 0.58 0.55 0.52 0.53 0.57 0.61 0.60 0.60 0.61 0.59 0.58 0.57 0.55 0.53 0.50 0.47 0.44
1.01 1.01 1.01 1.01 1.00 1.00 0.99 0.99 0.99 1.00 1.00 0.97 0.99 1.04 1.04 1.02 1.01 1.00 0.98 0.95 0.95 0.96 0.95 0.95 0.95 0.95 0.93 0.94 0.95 0.95 0.95 0.97 0.98 0.98 0.97 0.97 0.98 0.98 0.98 0.96 0.94 0.91 0.90 0.89 0.89 0.91 0.93 0.96 1.00 1.03 1.02 1.01 0.99 0.99 0.99 0.98 0.97 0.95 0.91 0.87 0.82 0.79 0.76 0.70 0.64 0.60 0.58 0.53 0.50 0.49 0.49 0.49 0.53 0.56 0.57 0.57 0.56 0.56 0.56 0.54 0.52 0.49 0.48 0.46 0.46
1.03 1.03 1.03 1.01 1.00 1.02 1.03 1.02 1.03 1.05 1.04 1.04 1.04 1.07 1.07 1.06 1.04 1.03 1.01 1.02 1.01 0.99 1.00 1.00 0.99 0.98 0.97 0.96 0.97 0.99 0.98 0.98 0.97 0.97 0.95 0.94 0.95 0.97 0.97 0.95 0.92 0.90 0.88 0.87 0.88 0.91 0.95 0.98 0.98 0.99 0.99 0.99 0.97 0.95 0.92 0.89 0.86 0.81 0.74 0.67 0.61 0.59 0.58 0.58 0.58 0.56 0.56 0.52 0.50 0.50 0.51 0.53 0.53 0.55 0.59 0.58 0.59 0.55 0.54 0.53 0.52 0.50 0.49 0.47 0.46
1.02 1.02 1.03 1.01 1.03 1.04 1.04 1.05 1.05 1.05 1.05 1.04 1.05 1.04 1.05 1.04 1.05 1.05 1.04 1.06 1.04 1.03 1.03 1.00 1.00 0.99 0.98 0.96 0.96 0.97 0.96 0.96 0.95 0.94 0.93 0.93 0.93 0.94 0.93 0.90 0.89 0.87 0.87 0.87 0.91 0.96 0.98 0.96 0.92 0.90 0.91 0.89 0.86 0.82 0.78 0.73 0.67 0.62 0.57 0.56 0.54 0.56 0.57 0.59 0.61 0.62 0.62 0.60 0.57 0.54 0.59 0.61 0.57 0.58 0.60 0.61 0.57 0.54 0.53 0.51 0.52 0.49 0.48 0.46 0.48
0.92 0.96 0.98 1.00 1.00 1.02 1.01 1.03 1.03 1.03 1.03 1.02 1.02 1.02 1.01 1.02 1.03 1.04 1.05 1.03 1.01 0.99 0.99 0.97 0.97 0.98 0.97 0.97 0.95 0.94 0.94 0.93 0.91 0.90 0.89 0.89 0.89 0.89 0.89 0.89 0.89 0.88 0.89 0.89 0.92 0.97 0.97 0.95 0.88 0.83 0.80 0.79 0.79 0.76 0.70 0.66 0.63 0.60 0.56 0.54 0.54 0.55 0.55 0.54 0.54 0.54 0.55 0.56 0.57 0.59 0.61 0.61 0.60 0.60 0.60 0.60 0.57 0.56 0.54 0.51 0.49 0.47 0.46 0.47 0.44
0.77 0.81 0.85 0.91 0.98 1.01 1.02 1.02 1.02 1.03 1.03 1.01 1.00 0.99 0.98 0.98 0.98 0.98 0.98 0.98 1.00 1.00 1.00 0.98 0.96 0.96 0.96 0.95 0.92 0.89 0.90 0.90 0.89 0.88 0.87 0.86 0.86 0.87 0.86 0.86 0.84 0.83 0.85 0.87 0.91 0.94 0.94 0.91 0.85 0.80 0.78 0.77 0.77 0.75 0.72 0.69 0.64 0.59 0.56 0.55 0.54 0.55 0.54 0.56 0.56 0.57 0.57 0.57 0.57 0.56 0.57 0.58 0.58 0.57 0.57 0.56 0.54 0.53 0.51 0.48 0.45 0.41 0.37 0.33 0.31
0.74 0.75 0.75 0.79 0.86 0.93 1.00 1.02 1.00 1.01 1.00 0.98 0.98 0.97 0.95 0.96 0.97 0.98 0.94 0.93 0.92 0.93 0.94 0.96 0.97 0.92 0.92 0.92 0.89 0.87 0.87 0.86 0.86 0.84 0.83 0.83 0.83 0.80 0.81 0.80 0.79 0.79 0.81 0.84 0.86 0.87 0.88 0.88 0.85 0.80 0.78 0.76 0.76 0.74 0.72 0.69 0.64 0.60 0.56 0.54 0.53 0.53 0.53 0.56 0.58 0.58 0.58 0.58 0.57 0.57 0.56 0.55 0.54 0.53 0.52 0.50 0.48 0.46 0.43 0.39 0.35 0.36 0.32 0.29 0.30
0.71 0.72 0.72 0.73 0.74 0.76 0.78 0.81 0.83 0.87 0.91 0.91 0.88 0.87 0.89 0.90 0.92 0.94 0.89 0.88 0.89 0.90 0.92 0.91 0.91 0.91 0.88 0.86 0.85 0.82 0.81 0.82 0.82 0.81 0.81 0.80 0.77 0.76 0.76 0.75 0.74 0.76 0.77 0.79 0.80 0.81 0.82 0.83 0.81 0.77 0.73 0.70 0.70 0.69 0.68 0.65 0.59 0.55 0.51 0.50 0.50 0.51 0.53 0.57 0.58 0.59 0.60 0.59 0.59 0.58 0.57 0.56 0.54 0.52 0.51 0.49 0.47 0.46 0.42 0.36 0.37 0.36 0.32 0.32 0.30
0.72 0.72 0.72 0.73 0.73 0.74 0.73 0.73 0.73 0.73 0.72 0.73 0.77 0.81 0.85 0.86 0.90 0.91 0.89 0.88 0.86 0.87 0.86 0.84 0.84 0.84 0.83 0.83 0.83 0.79 0.78 0.78 0.77 0.74 0.74 0.72 0.72 0.73 0.72 0.69 0.67 0.68 0.69 0.69 0.71 0.72 0.73 0.74 0.74 0.73 0.70 0.68 0.65 0.60 0.56 0.53 0.49 0.48 0.48 0.48 0.48 0.50 0.54 0.58 0.58 0.58 0.59 0.58 0.58 0.57 0.56 0.56 0.54 0.52 0.51 0.49 0.47 0.46 0.44 0.41 0.40 0.37 0.34 0.34 0.34
0.73 0.72 0.72 0.72 0.72 0.72 0.73 0.72 0.72 0.71 0.71 0.71 0.72 0.72 0.73 0.76 0.82 0.85 0.86 0.85 0.83 0.84 0.82 0.80 0.77 0.77 0.78 0.78 0.77 0.77 0.75 0.73 0.71 0.68 0.66 0.64 0.64 0.65 0.65 0.61 0.58 0.60 0.62 0.63 0.63 0.65 0.66 0.67 0.67 0.66 0.64 0.59 0.51 0.45 0.44 0.43 0.43 0.46 0.48 0.47 0.48 0.50 0.58 0.60 0.61 0.60 0.59 0.58 0.56 0.55 0.52 0.50 0.48 0.47 0.46 0.46 0.45 0.44 0.43 0.43 0.42 0.41 0.39 0.37 0.36
0.73 0.73 0.73 0.73 0.72 0.71 0.69 0.69 0.69 0.70 0.70 0.71 0.73 0.71 0.71 0.72 0.74 0.81 0.87 0.88 0.85 0.84 0.82 0.81 0.79 0.78 0.78 0.76 0.72 0.72 0.71 0.68 0.67 0.64 0.61 0.57 0.54 0.55 0.56 0.57 0.58 0.58 0.57 0.58 0.57 0.55 0.54 0.54 0.54 0.53 0.50 0.45 0.41 0.43 0.44 0.44 0.46 0.47 0.49 0.49 0.52 0.56 0.58 0.56 0.56 0.57 0.55 0.54 0.53 0.49 0.47 0.46 0.46 0.46 0.45 0.44 0.44 0.43 0.43 0.44 0.44 0.44 0.40 0.37 0.34
0.74 0.73 0.73 0.72 0.71 0.71 0.72 0.73 0.73 0.73 0.74 0.73 0.73 0.73 0.73 0.74 0.74 0.74 0.74 0.76 0.83 0.86 0.84 0.82 0.80 0.79 0.79 0.78 0.74 0.70 0.69 0.67 0.64 0.60 0.56 0.51 0.48 0.50 0.53 0.58 0.61 0.59 0.55 0.54 0.54 0.52 0.52 0.51 0.50 0.50 0.48 0.43 0.45 0.47 0.47 0.46 0.48 0.49 0.50 0.50 0.49 0.49 0.49 0.49 0.48 0.48 0.47 0.46 0.45 0.44 0.44 0.43 0.42 0.42 0.42 0.42 0.42 0.42 0.43 0.43 0.43 0.42 0.42 0.40 0.37
0.68 0.68 0.69 0.70 0.70 0.70 0.70 0.70 0.72 0.74 0.74 0.74 0.73 0.73 0.73 0.74 0.74 0.74 0.73 0.71 0.72 0.73 0.75 0.78 0.78 0.77 0.77 0.77 0.77 0.76 0.73 0.70 0.64 0.57 0.51 0.48 0.46 0.49 0.54 0.58 0.62 0.62 0.58 0.55 0.55 0.56 0.57 0.54 0.54 0.55 0.52 0.50 0.51 0.52 0.50 0.48 0.47 0.46 0.46 0.46 0.46 0.46 0.46 0.44 0.44 0.43 0.42 0.41 0.40 0.38 0.38 0.38 0.37 0.37 0.38 0.38 0.40 0.41 0.41 0.42 0.42 0.42 0.41 0.41 0.40
0.62 0.61 0.62 0.63 0.65 0.66 0.68 0.69 0.70 0.70 0.71 0.72 0.73 0.73 0.73 0.73 0.72 0.71 0.71 0.70 0.69 0.69 0.71 0.71 0.71 0.71 0.72 0.74 0.76 0.77 0.76 0.72 0.65 0.59 0.54 0.50 0.49 0.47 0.49 0.53 0.59 0.61 0.62 0.61 0.61 0.61 0.58 0.56 0.56 0.55 0.52 0.53 0.54 0.54 0.51 0.48 0.46 0.46 0.45 0.45 0.44 0.43 0.43 0.42 0.40 0.39 0.38 0.37 0.36 0.36 0.36 0.37 0.37 0.36 0.37 0.39 0.40 0.40 0.41 0.41 0.40 0.40 0.38 0.37 0.37
0.54 0.55 0.56 0.58 0.59 0.61 0.62 0.63 0.64 0.64 0.65 0.65 0.65 0.65 0.66 0.67 0.66 0.65 0.69 0.70 0.70 0.67 0.67 0.68 0.68 0.68 0.69 0.69 0.70 0.74 0.78 0.76 0.69 0.63 0.60 0.57 0.53 0.51 0.49 0.49 0.48 0.53 0.57 0.60 0.62 0.63 0.63 0.62 0.61 0.57 0.55 0.56 0.56 0.54 0.49 0.46 0.45 0.45 0.45 0.45 0.46 0.45 0.42 0.40 0.39 0.38 0.36 0.35 0.35 0.35 0.36 0.37 0.38 0.39 0.40 0.40 0.40 0.41 0.39 0.38 0.38 0.37 0.37 0.36 0.36
0.47 0.47 0.48 0.49 0.50 0.52 0.52 0.53 0.53 0.54 0.57 0.58 0.59 0.60 0.61 0.62 0.62 0.62 0.62 0.62 0.63 0.64 0.64 0.63 0.65 0.67 0.67 0.69 0.70 0.71 0.74 0.76 0.74 0.69 0.67 0.66 0.64 0.60 0.55 0.52 0.52 0.55 0.57 0.59 0.62 0.66 0.67 0.67 0.66 0.62 0.61 0.59 0.58 0.53 0.48 0.47 0.48 0.48 0.48 0.47 0.45 0.44 0.42 0.40 0.38 0.37 0.35 0.36 0.36 0.36 0.37 0.38 0.38 0.39 0.40 0.39 0.38 0.36 0.36 0.34 0.33 0.33 0.33 0.32 0.31
0.43 0.43 0.43 0.44 0.44 0.44 0.44 0.45 0.45 0.46 0.46 0.47 0.49 0.51 0.54 0.56 0.57 0.58 0.60 0.61 0.61 0.60 0.61 0.61 0.61 0.63 0.64 0.67 0.68 0.69 0.70 0.75 0.75 0.73 0.71 0.73 0.74 0.70 0.64 0.59 0.58 0.57 0.57 0.60 0.64 0.67 0.67 0.68 0.66 0.64 0.63 0.61 0.58 0.53 0.50 0.50 0.51 0.50 0.48 0.47 0.47 0.45 0.43 0.41 0.39 0.38 0.37 0.36 0.36 0.37 0.38 0.39 0.40 0.39 0.37 0.36 0.35 0.34 0.34 0.31 0.30 0.29 0.30 0.31 0.30
0.38 0.38 0.39 0.40 0.40 0.41 0.40 0.41 0.41 0.41 0.42 0.44 0.44 0.45 0.46 0.48 0.49 0.50 0.51 0.55 0.56 0.58 0.59 0.59 0.60 0.60 0.60 0.63 0.66 0.67 0.67 0.68 0.70 0.74 0.76 0.74 0.71 0.69 0.67 0.65 0.63 0.61 0.61 0.62 0.64 0.65 0.66 0.66 0.65 0.64 0.63 0.62 0.55 0.51 0.50 0.50 0.50 0.49 0.48 0.47 0.47 0.46 0.44 0.43 0.42 0.41 0.39 0.39 0.38 0.39 0.38 0.38 0.36 0.36 0.35 0.34 0.33 0.32 0.32 0.31 0.29 0.29 0.29 0.30 0.28
0.32 0.32 0.33 0.33 0.33 0.34 0.35 0.35 0.36 0.37 0.38 0.40 0.42 0.44 0.43 0.43 0.44 0.46 0.50 0.52 0.52 0.53 0.54 0.56 0.59 0.61 0.60 0.60 0.61 0.63 0.66 0.67 0.70 0.75 0.75 0.74 0.70 0.60 0.65 0.66 0.66 0.57 0.61 0.65 0.66 0.67 0.67 0.66 0.65 0.65 0.62 0.57 0.51 0.50 0.50 0.49 0.49 0.49 0.49 0.48 0.47 0.45 0.43 0.42 0.39 0.39 0.39 0.38 0.37 0.36 0.35 0.35 0.34 0.34 0.33 0.32 0.31 0.31 0.32 0.30 0.29 0.29 0.30 0.31 0.29
0.29 0.29 0.29 0.29 0.29 0.29 0.29 0.29 0.29 0.29 0.30 0.31 0.32 0.34 0.40 0.43 0.44 0.43 0.44 0.48 0.50 0.51 0.52 0.52 0.56 0.58 0.58 0.61 0.65 0.63 0.63 0.68 0.74 0.74 0.74 0.74 0.73 0.69 0.67 0.68 0.64 0.64 0.65 0.61 0.61 0.61 0.62 0.61 0.63 0.63 0.57 0.53 0.52 0.50 0.49 0.48 0.49 0.49 0.49 0.48 0.45 0.44 0.42 0.41 0.41 0.40 0.39 0.38 0.37 0.36 0.35 0.34 0.33 0.33 0.32 0.30 0.30 0.30 0.30 0.29 0.29 0.30 0.29 0.29 0.29
0.26 0.26 0.27 0.26 0.27 0.27 0.27 0.27 0.28 0.29 0.29 0.29 0.29 0.29 0.29 0.31 0.35 0.38 0.39 0.41 0.43 0.44 0.46 0.48 0.50 0.53 0.56 0.56 0.61 0.68 0.67 0.68 0.68 0.67 0.66 0.65 0.65 0.66 0.66 0.69 0.68 0.69 0.70 0.67 0.62 0.59 0.57 0.59 0.59 0.57 0.55 0.56 0.54 0.53 0.53 0.53 0.52 0.49 0.48 0.46 0.44 0.43 0.42 0.41 0.40 0.40 0.39 0.38 0.37 0.37 0.36 0.34 0.33 0.33 0.31 0.30 0.29 0.28 0.29 0.30 0.31 0.31 0.30 0.30 0.30
0.25 0.26 0.26 0.26 0.26 0.27 0.28 0.28 0.29 0.28 0.29 0.29 0.30 0.30 0.29 0.28 0.28 0.33 0.36 0.38 0.38 0.39 0.39 0.40 0.41 0.43 0.48 0.51 0.54 0.56 0.62 0.66 0.67 0.66 0.64 0.63 0.63 0.64 0.65 0.65 0.65 0.67 0.67 0.66 0.60 0.58 0.58 0.56 0.54 0.54 0.54 0.53 0.52 0.51 0.53 0.53 0.53 0.51 0.49 0.45 0.43 0.43 0.42 0.41 0.41 0.40 0.39 0.38 0.37 0.36 0.36 0.35 0.33 0.31 0.30 0.29 0.28 0.27 0.28 0.29 0.30 0.30 0.30 0.31 0.31
0.26 0.26 0.26 0.26 0.26 0.28 0.28 0.28 0.28 0.28 0.28 0.29 0.31 0.32 0.30 0.29 0.27 0.27 0.30 0.35 0.37 0.38 0.41 0.42 0.41 0.39 0.40 0.42 0.47 0.50 0.52 0.56 0.59 0.61 0.63 0.64 0.65 0.65 0.66 0.65 0.64 0.65 0.64 0.60 0.57 0.56 0.54 0.53 0.52 0.52 0.51 0.49 0.49 0.51 0.53 0.54 0.53 0.51 0.49 0.46 0.44 0.44 0.44 0.43 0.43 0.41 0.40 0.39 0.38 0.37 0.36 0.34 0.33 0.31 0.30 0.28 0.27 0.26 0.27 0.28 0.29 0.30 0.30 0.29 0.29
0.27 0.27 0.27 0.27 0.27 0.27 0.28 0.28 0.29 0.30 0.32 0.33 0.34 0.34 0.33 0.33 0.32 0.32 0.30 0.30 0.30 0.33 0.38 0.40 0.42 0.43 0.42 0.42 0.42 0.45 0.48 0.52 0.54 0.55 0.57 0.58 0.61 0.63 0.64 0.62 0.61 0.61 0.59 0.54 0.51 0.48 0.49 0.49 0.49 0.49 0.49 0.48 0.49 0.51 0.53 0.53 0.52 0.50 0.48 0.46 0.45 0.44 0.43 0.43 0.41 0.40 0.40 0.38 0.37 0.36 0.35 0.34 0.32 0.30 0.28 0.28 0.28 0.27 0.27 0.28 0.28 0.28 0.28 0.28 0.30
0.29 0.29 0.29 0.29 0.29 0.29 0.30 0.31 0.32 0.33 0.33 0.34 0.35 0.36 0.36 0.36 0.36 0.34 0.34 0.33 0.32 0.31 0.31 0.35 0.40 0.42 0.43 0.44 0.44 0.44 0.45 0.47 0.49 0.50 0.50 0.51 0.52 0.54 0.54 0.53 0.50 0.51 0.52 0.51 0.49 0.47 0.46 0.46 0.46 0.47 0.48 0.48 0.50 0.53 0.55 0.54 0.52 0.49 0.47 0.44 0.43 0.42 0.41 0.40 0.39 0.39 0.38 0.37 0.36 0.34 0.33 0.32 0.31 0.30 0.28 0.26 0.26 0.25 0.26 0.27 0.28 0.29 0.28 0.30 0.31
0.31 0.31 0.32 0.32 0.33 0.33 0.34 0.34 0.35 0.34 0.34 0.34 0.35 0.34 0.34 0.33 0.33 0.33 0.34 0.35 0.36 0.36 0.36 0.38 0.40 0.42 0.43 0.45 0.47 0.47 0.48 0.48 0.49 0.50 0.50 0.50 0.50 0.50 0.45 0.43 0.42 0.43 0.43 0.45 0.45 0.45 0.44 0.44 0.44 0.43 0.44 0.45 0.45 0.48 0.52 0.52 0.50 0.48 0.45 0.43 0.41 0.40 0.40 0.39 0.39 0.38 0.38 0.37 0.36 0.34 0.33 0.32 0.31 0.29 0.28 0.27 0.26 0.25 0.26 0.27 0.28 0.29 0.30 0.32 0.33
0.33 0.33 0.34 0.36 0.36 0.36 0.36 0.36 0.35 0.35 0.34 0.34 0.32 0.31 0.31 0.31 0.31 0.31 0.31 0.32 0.33 0.36 0.39 0.41 0.42 0.44 0.45 0.46 0.47 0.47 0.49 0.50 0.51 0.51 0.51 0.51 0.51 0.50 0.48 0.47 0.46 0.46 0.45 0.45 0.46 0.46 0.47 0.48 0.49 0.48 0.48 0.48 0.48 0.49 0.50 0.49 0.48 0.45 0.44 0.43 0.43 0.42 0.40 0.38 0.37 0.37 0.37 0.36 0.35 0.34 0.33 0.32 0.31 0.30 0.28 0.25 0.25 0.25 0.25 0.27 0.28 0.29 0.31 0.32 0.34
0.36 0.36 0.37 0.38 0.38 0.38 0.37 0.36 0.36 0.36 0.35 0.33 0.32 0.31 0.29 0.29 0.29 0.30 0.30 0.31 0.32 0.33 0.35 0.39 0.43 0.44 0.44 0.45 0.50 0.50 0.49 0.48 0.48 0.48 0.49 0.49 0.48 0.46 0.45 0.45 0.46 0.46 0.46 0.51 0.55 0.54 0.53 0.55 0.56 0.55 0.54 0.53 0.51 0.52 0.52 0.51 0.48 0.46 0.43 0.43 0.42 0.40 0.38 0.37 0.36 0.36 0.37 0.35 0.34 0.34 0.34 0.33 0.32 0.30 0.28 0.26 0.24 0.24 0.26 0.27 0.28 0.29 0.31 0.33 0.34
0.39 0.40 0.41 0.41 0.40 0.39 0.38 0.37 0.37 0.36 0.34 0.32 0.31 0.30 0.29 0.29 0.29 0.30 0.31 0.32 0.33 0.34 0.36 0.38 0.40 0.43 0.46 0.49 0.49 0.51 0.50 0.48 0.47 0.46 0.47 0.47 0.46 0.45 0.45 0.45 0.47 0.47 0.46 0.46 0.50 0.53 0.54 0.53 0.54 0.55 0.53 0.51 0.51 0.51 0.49 0.45 0.44 0.42 0.41 0.40 0.39 0.37 0.36 0.35 0.36 0.37 0.36 0.34 0.34 0.34 0.34 0.32 0.31 0.29 0.28 0.26 0.25 0.25 0.26 0.26 0.28 0.30 0.31 0.32 0.33
0.42 0.42 0.42 0.42 0.41 0.40 0.40 0.39 0.38 0.36 0.34 0.32 0.31 0.31 0.31 0.30 0.30 0.30 0.32 0.33 0.34 0.36 0.38 0.38 0.39 0.42 0.47 0.49 0.49 0.49 0.47 0.46 0.47 0.49 0.49 0.48 0.46 0.45 0.45 0.45 0.45 0.45 0.46 0.45 0.47 0.50 0.50 0.52 0.51 0.53 0.53 0.50 0.48 0.47 0.45 0.43 0.41 0.41 0.40 0.39 0.37 0.35 0.35 0.36 0.36 0.35 0.34 0.34 0.34 0.34 0.32 0.31 0.30 0.28 0.27 0.27 0.26 0.26 0.26 0.27 0.30 0.32 0.32 0.32 0.33
0.43 0.43 0.42 0.42 0.41 0.41 0.40 0.39 0.38 0.36 0.35 0.34 0.33 0.32 0.32 0.32 0.32 0.33 0.34 0.35 0.36 0.37 0.38 0.40 0.42 0.45 0.47 0.48 0.49 0.49 0.49 0.48 0.48 0.48 0.48 0.49 0.50 0.49 0.48 0.48 0.48 0.48 0.49 0.47 0.47 0.49 0.51 0.52 0.51 0.50 0.47 0.46 0.45 0.46 0.45 0.44 0.42 0.41 0.41 0.39 0.36 0.36 0.36 0.37 0.35 0.34 0.34 0.34 0.34 0.33 0.31 0.30 0.28 0.27 0.26 0.26 0.27 0.27 0.28 0.29 0.31 0.32 0.32 0.33 0.33
0.44 0.44 0.43 0.42 0.42 0.41 0.39 0.38 0.38 0.38 0.37 0.35 0.34 0.33 0.33 0.33 0.34 0.34 0.35 0.37 0.38 0.38 0.38 0.40 0.43 0.46 0.48 0.49 0.48 0.49 0.49 0.49 0.49 0.49 0.49 0.51 0.51 0.50 0.50 0.49 0.50 0.50 0.50 0.49 0.49 0.48 0.49 0.48 0.45 0.43 0.42 0.40 0.40 0.41 0.41 0.40 0.42 0.43 0.42 0.39 0.36 0.36 0.35 0.34 0.34 0.33 0.33 0.33 0.32 0.31 0.30 0.28 0.27 0.26 0.26 0.26 0.25 0.26 0.28 0.29 0.31 0.31 0.32 0.32 0.34
0.44 0.45 0.44 0.43 0.42 0.40 0.38 0.39 0.39 0.38 0.37 0.35 0.34 0.34 0.34 0.35 0.35 0.36 0.38 0.39 0.40 0.39 0.39 0.39 0.40 0.42 0.44 0.46 0.47 0.48 0.49 0.48 0.47 0.47 0.47 0.49 0.49 0.49 0.49 0.49 0.50 0.51 0.50 0.49 0.49 0.49 0.47 0.45 0.42 0.41 0.40 0.40 0.41 0.41 0.41 0.40 0.41 0.41 0.40 0.38 0.35 0.33 0.33 0.32 0.31 0.32 0.33 0.33 0.32 0.31 0.28 0.26 0.25 0.25 0.25 0.25 0.26 0.27 0.28 0.28 0.29 0.30 0.32 0.33 0.33
0.44 0.46 0.45 0.44 0.42 0.40 0.40 0.40 0.40 0.39 0.38 0.35 0.34 0.34 0.35 0.37 0.37 0.38 0.39 0.40 0.41 0.41 0.40 0.38 0.39 0.41 0.42 0.45 0.46 0.46 0.46 0.47 0.47 0.48 0.47 0.46 0.45 0.46 0.48 0.49 0.50 0.49 0.49 0.48 0.47 0.46 0.45 0.42 0.41 0.40 0.40 0.40 0.40 0.41 0.41 0.41 0.40 0.38 0.36 0.35 0.33 0.32 0.31 0.32 0.33 0.33 0.33 0.32 0.30 0.28 0.26 0.25 0.24 0.24 0.24 0.25 0.26 0.27 0.27 0.28 0.29 0.31 0.32 0.33 0.33
0.44 0.44 0.44 0.43 0.42 0.41 0.41 0.42 0.41 0.41 0.38 0.36 0.33 0.33 0.37 0.38 0.38 0.39 0.40 0.41 0.42 0.42 0.42 0.41 0.41 0.41 0.40 0.41 0.43 0.44 0.46 0.47 0.46 0.46 0.46 0.44 0.43 0.45 0.47 0.49 0.49 0.48 0.47 0.45 0.45 0.44 0.43 0.42 0.41 0.40 0.40 0.41 0.41 0.41 0.41 0.40 0.40 0.38 0.37 0.35 0.34 0.33 0.34 0.34 0.35 0.35 0.34 0.30 0.27 0.24 0.24 0.24 0.24 0.24 0.25 0.26 0.27 0.27 0.26 0.28 0.30 0.31 0.32 0.32 0.32
0.44 0.43 0.43 0.43 0.43 0.42 0.42 0.41 0.41 0.40 0.38 0.35 0.33 0.32 0.36 0.39 0.39 0.39 0.40 0.41 0.42 0.42 0.42 0.42 0.41 0.41 0.41 0.41 0.43 0.45 0.45 0.46 0.45 0.44 0.44 0.44 0.44 0.44 0.47 0.48 0.48 0.47 0.46 0.46 0.44 0.43 0.43 0.42 0.42 0.42 0.41 0.41 0.40 0.40 0.40 0.39 0.39 0.39 0.39 0.37 0.37 0.36 0.37 0.37 0.37 0.34 0.31 0.27 0.24 0.24 0.26 0.26 0.25 0.26 0.27 0.27 0.28 0.28 0.27 0.29 0.31 0.32 0.31 0.31 0.33
0.47 0.46 0.46 0.45 0.44 0.43 0.43 0.42 0.40 0.38 0.38 0.36 0.35 0.34 0.35 0.38 0.40 0.40 0.40 0.40 0.41 0.42 0.42 0.43 0.43 0.42 0.41 0.41 0.42 0.43 0.44 0.44 0.43 0.43 0.43 0.44 0.44 0.45 0.46 0.46 0.46 0.45 0.45 0.45 0.44 0.43 0.42 0.42 0.42 0.41 0.40 0.39 0.38 0.38 0.38 0.39 0.39 0.38 0.38 0.39 0.39 0.39 0.38 0.37 0.34 0.31 0.27 0.26 0.27 0.26 0.27 0.28 0.27 0.27 0.28 0.29 0.28 0.27 0.27 0.29 0.31 0.31 0.31 0.32 0.32
0.45 0.45 0.45 0.45 0.45 0.43 0.42 0.40 0.39 0.39 0.38 0.37 0.36 0.36 0.36 0.37 0.40 0.41 0.41 0.40 0.40 0.41 0.42 0.43 0.43 0.44 0.43 0.42 0.42 0.42 0.43 0.44 0.44 0.44 0.44 0.45 0.45 0.46 0.45 0.44 0.43 0.43 0.42 0.41 0.41 0.41 0.42 0.42 0.42 0.42 0.42 0.41 0.41 0.40 0.40 0.40 0.40 0.40 0.39 0.39 0.39 0.38 0.36 0.33 0.29 0.27 0.28 0.29 0.28 0.28 0.27 0.28 0.29 0.29 0.29 0.29 0.28 0.28 0.28 0.29 0.31 0.32 0.32 0.32 0.32
0.43 0.43 0.43 0.43 0.42 0.40 0.39 0.40 0.39 0.39 0.38 0.38 0.37 0.36 0.35 0.36 0.37 0.40 0.40 0.40 0.41 0.41 0.42 0.42 0.43 0.44 0.44 0.45 0.45 0.44 0.44 0.44 0.44 0.45 0.46 0.46 0.45 0.44 0.44 0.44 0.43 0.43 0.43 0.43 0.44 0.45 0.45 0.45 0.45 0.45 0.44 0.44 0.42 0.41 0.40 0.39 0.39 0.39 0.38 0.37 0.35 0.32 0.29 0.27 0.27 0.28 0.29 0.29 0.29 0.29 0.29 0.31 0.31 0.32 0.32 0.32 0.31 0.30 0.29 0.30 0.31 0.31 0.32 0.31 0.30
0.42 0.42 0.41 0.41 0.40 0.39 0.39 0.39 0.40 0.39 0.38 0.37 0.36 0.35 0.34 0.34 0.34 0.34 0.36 0.38 0.39 0.40 0.41 0.42 0.42 0.43 0.44 0.44 0.45 0.45 0.45 0.45 0.45 0.44 0.44 0.44 0.45 0.45 0.45 0.44 0.44 0.45 0.45 0.45 0.46 0.46 0.47 0.46 0.46 0.45 0.43 0.41 0.40 0.39 0.38 0.37 0.36 0.35 0.34 0.31 0.29 0.27 0.26 0.26 0.28 0.29 0.32 0.33 0.33 0.33 0.33 0.33 0.33 0.33 0.33 0.33 0.33 0.31 0.30 0.29 0.31 0.32 0.32 0.31 0.30
0.39 0.40 0.40 0.38 0.38 0.38 0.38 0.38 0.38 0.38 0.37 0.36 0.35 0.34 0.33 0.33 0.33 0.32 0.34 0.35 0.36 0.37 0.38 0.39 0.41 0.41 0.42 0.43 0.44 0.44 0.44 0.44 0.44 0.45 0.45 0.44 0.45 0.45 0.45 0.45 0.45 0.46 0.46 0.46 0.46 0.46 0.46 0.45 0.45 0.43 0.41 0.40 0.38 0.36 0.35 0.34 0.32 0.30 0.28 0.26 0.25 0.25 0.26 0.28 0.30 0.32 0.33 0.34 0.34 0.34 0.34 0.34 0.33 0.33 0.33 0.33 0.32 0.32 0.31 0.31 0.30 0.30 0.31 0.31 0.30
Wind_Speed
17 17 18 18 17 17 17 17 16 16 16 15 15 14 13 13 12 11 10 10 10 10 10 10 10 10 10 9 9 8 8 8 7 7 6 6 5 5 5 4 4 4 4 4 4 4 4 5 5 5 5 5 5 5 5 5 4 5 6 8 8 7 6 5 4 5 6 6 5 5 5 5 5 5 5 5 5 6 6 6 6 7 7 8 8
17 17 18 17 17 17 17 17 17 16 16 16 15 14 14 13 12 11 11 10 11 10 10 11 11 10 11 10 10 9 9 9 8 8 7 7 7 6 6 6 5 5 5 5 5 5 5 6 6 6 6 6 6 6 6 6 5 5 6 7 8 8 7 6 5 6 6 7 7 7 7 7 6 7 6 6 6 7 8 8 8 9 9 10 11
18 18 18 18 18 18 17 17 17 17 16 16 15 15 15 14 13 12 11 11 11 11 11 11 11 11 11 11 11 10 10 10 9 9 8 8 8 8 7 7 7 7 7 7 7 7 7 7 7 7 7 7 7 7 7 7 7 6 7 7 8 8 7 7 7 7 7 7 7 8 8 7 7 8 8 8 8 9 9 10 10 11 11 12 12
19 18 18 18 18 17 17 17 17 17 16 16 16 15 15 15 14 13 13 13 13 12 12 12 12 11 11 11 11 11 10 10 10 9 9 9 9 9 8 8 8 8 8 8 8 8 8 8 9 9 9 9 8 8 8 8 8 8 8 8 8 8 8 8 7 8 8 8 8 8 8 9 9 9 9 10 10 11 11 12 12 12 13 13 14
20 19 18 18 18 18 17 18 18 17 17 17 16 16 15 15 15 14 14 14 14 13 13 12 12 12 11 11 11 11 11 11 10 10 10 10 10 10 9 9 9 9 10 10 10 10 10 10 10 10 10 10 9 9 9 9 9 9 9 9 9 9 9 8 8 8 8 8 8 8 9 9 10 10 10 11 11 11 12 12 13 13 14 14 15
19 19 19 18 18 18 18 18 18 18 19 18 17 16 16 16 16 15 15 15 14 14 14 14 13 12 12 12 11 11 11 11 11 11 11 11 11 11 10 10 10 10 10 11 11 11 11 11 11 11 12 12 11 10 10 10 10 10 9 9 9 9 9 9 9 9 9 9 9 10 10 10 11 11 12 12 12 13 13 13 14 14 15 16 17
17 18 18 17 17 16 16 17 17 17 18 18 17 17 17 17 16 16 15 15 15 15 14 14 14 13 13 13 12 12 11 11 11 12 12 12 12 12 11 11 11 11 11 12 12 12 12 12 12 12 12 13 13 12 11 11 11 11 10 10 10 9 9 9 9 9 10 10 11 11 12 12 12 13 13 14 14 15 15 15 15 16 17 17 18
14 15 16 15 15 15 14 15 15 15 15 16 16 16 17 17 17 16 16 16 16 16 15 15 14 14 14 14 13 13 13 13 13 13 13 13 13 13 13 12 12 12 13 13 13 13 13 13 13 13 13 13 13 13 12 12 11 11 11 11 11 11 10 10 10 11 11 12 12 13 14 14 15 15 15 16 16 17 17 18 18 19 20 20 21
13 13 14 14 14 14 14 14 14 14 14 15 15 15 15 15 15 15 16 16 16 16 16 15 15 14 14 14 14 14 14 14 14 14 14 14 14 14 14 14 14 14 14 15 15 15 14 14 14 14 14 14 13 13 13 12 12 12 12 12 12 13 13 13 13 13 14 14 14 15 16 16 17 17 18 18 18 19 20 20 21 22 23 23 24
12 12 13 14 14 14 14 14 14 14 14 14 14 14 14 14 14 15 15 16 16 16 16 16 15 15 15 15 15 15 15 15 15 15 15 15 15 15 15 15 15 16 16 16 16 16 16 16 15 14 14 14 13 13 13 13 13 13 13 14 14 15 15 15 16 16 17 17 17 18 18 18 19 19 19 20 20 21 21 22 23 24 25 25 26
12 12 12 13 13 14 14 14 14 15 14 14 14 14 15 15 15 15 15 16 16 16 16 16 15 15 15 15 15 15 15 15 16 16 16 16 16 16 16 16 16 16 17 17 17 17 16 16 15 15 14 14 14 14 14 14 14 14 15 15 16 17 17 18 18 19 19 19 20 20 20 20 21 21 21 22 22 23 23 24 24 25 25 26 27
12 12 12 12 13 13 14 14 14 15 15 15 14 14 15 15 15 15 15 15 15 15 15 15 15 15 16 16 16 16 16 16 17 17 17 17 17 17 17 17 17 17 17 17 17 16 16 15 15 15 15 15 15 15 15 15 15 16 16 16 17 18 18 19 20 20 21 21 21 22 22 22 23 23 23 24 24 25 25 26 26 26 26 27 28
11 11 11 12 12 13 14 14 15 16 16 15 15 15 15 15 15 16 16 16 16 16 15 16 16 16 17 17 17 17 17 17 17 17 18 18 18 18 18 18 18 18 17 17 16 16 16 15 15 15 15 15 15 15 15 15 15 16 16 17 18 18 19 20 20 21 21 22 22 23 24 24 24 25 25 25 26 26 27 27 27 27 28 28 29
10 10 10 11 11 12 13 14 15 16 16 16 16 17 16 16 16 16 17 17 17 17 17 17 17 18 18 18 18 18 18 19 19 19 19 19 19 19 20 19 18 18 17 17 16 16 16 16 16 16 15 15 16 16 16 16 16 16 17 18 19 19 20 20 21 22 23 23 24 25 25 26 26 26 27 27 27 28 28 29 29 29 29 29 30
9 9 10 10 11 12 13 13 14 15 16 16 17 18 18 18 18 17 17 18 18 18 18 19 19 19 19 19 19 19 19 19 19 19 19 19 19 19 19 19 18 18 17 17 17 17 16 16 16 16 16 16 16 17 17 17 17 18 18 18 19 20 20 21 21 22 23 23 24 25 25 26 26 27 28 28 29 29 29 29 29 30 30 30 30
8 8 9 9 11 12 13 13 14 14 15 16 17 17 18 18 18 18 19 19 19 19 19 20 20 21 21 21 21 20 20 20 20 21 21 20 20 20 19 19 19 19 19 18 18 18 18 18 17 18 18 18 18 19 19 19 19 20 20 20 20 20 21 22 22 22 23 23 23 24 25 26 26 27 28 28 28 29 29 29 29 29 30 30 31
7 8 8 9 10 11 12 13 14 14 15 16 16 17 17 17 18 18 19 19 19 20 20 21 21 22 22 22 22 22 22 22 22 22 22 21 21 20 20 20 19 19 19 20 20 20 20 20 20 20 20 20 20 20 20 21 21 22 22 22 22 22 23 23 23 23 23 24 24 25 25 26 27 27 27 28 28 28 28 29 29 29 30 31 31
8 8 9 9 10 11 12 12 13 14 15 16 17 17 17 17 18 18 19 19 20 21 21 22 22 23 23 24 23 23 23 23 23 22 22 22 22 21 21 21 20 20 20 20 21 21 21 21 21 21 22 22 22 22 23 23 23 24 24 24 24 24 25 25 25 25 25 25 25 26 26 27 27 27 28 28 28 28 28 29 30 30 31 31 32
10 10 10 11 11 11 12 13 13 14 15 16 16 17 17 18 19 20 20 21 21 22 23 23 23 23 23 24 24 24 24 24 23 23 23 24 24 23 23 23 23 22 22 22 21 22 22 22 23 23 24 24 25 25 25 25 25 25 25 25 25 26 26 26 26 26 26 26 27 27 27 27 27 28 28 28 28 28 29 29 30 31 32 33 34
12 12 12 12 12 13 13 13 14 14 15 15 16 17 18 19 20 21 22 22 23 24 24 24 24 24 24 25 25 25 25 24 25 25 25 25 26 26 26 26 25 24 24 24 24 24 25 25 26 26 26 26 26 26 26 26 26 27 27 27 27 27 27 27 27 27 27 27 27 28 28 28 28 28 28 28 29 29 30 30 31 32 33 34 35
13 14 14 14 14 15 15 15 16 16 17 18 19 19 20 20 21 23 24 25 26 26 26 26 26 26 27 27 27 26 26 26 26 27 27 27 28 28 28 28 27 27 27 27 27 27 27 28 28 28 28 27 27 27 27 27 27 27 28 28 28 28 27 28 28 28 28 28 28 28 28 29 29 29 29 29 30 30 31 32 33 34 34 35 36
16 17 17 17 18 18 18 19 19 20 21 22 22 23 23 23 24 24 25 26 27 28 29 29 29 29 29 29 29 29 29 28 28 28 29 29 29 30 29 29 29 29 29 29 29 29 29 29 30 29 29 28 28 28 28 27 27 28 28 28 28 28 28 29 29 29 29 29 28 29 29 29 29 29 30 30 31 31 32 32 33 34 35 36 37
20 20 20 21 21 22 22 23 24 24 25 25 25 26 26 26 26 26 26 27 27 28 29 30 30 31 31 31 31 31 31 30 30 30 31 31 31 31 31 31 31 31 31 31 31 31 31 31 31 30 30 29 29 28 28 28 28 28 28 28 28 29 29 29 29 29 29 28 29 29 29 29 30 30 30 31 32 32 33 33 34 35 36 37 38
21 22 23 24 24 25 26 26 27 27 27 27 28 29 29 30 30 30 30 29 29 30 30 30 31 32 32 33 33 33 33 33 33 33 33 33 33 33 33 33 33 33 33 33 33 33 33 32 32 32 31 30 30 29 29 29 29 29 29 29 29 29 29 28 28 28 28 28 28 29 29 29 30 30 31 31 32 32 33 34 35 36 37 38 39
23 24 25 25 26 27 28 28 29 29 29 30 30 31 31 32 31 31 32 33 32 33 33 33 33 34 34 34 34 35 35 36 36 36 35 35 35 35 34 34 34 34 34 34 35 35 34 34 33 32 32 31 30 30 30 29 29 29 28 28 28 28 28 28 28 28 28 28 28 28 29 29 30 30 30 31 32 33 34 35 36 37 38 39 39
24 25 26 26 27 28 29 29 30 31 31 31 32 32 33 33 33 33 33 34 35 35 36 36 36 36 36 36 36 36 37 37 37 36 35 35 35 35 34 34 34 34 34 34 35 35 35 34 33 33 32 31 30 30 29 29 28 28 28 28 28 28 28 28 28 28 28 28 28 28 29 29 29 29 30 31 32 33 35 36 37 37 38 38 39
26 26 27 27 28 29 29 30 31 32 32 33 33 34 34 35 35 35 36 36 37 37 38 38 38 38 38 39 39 38 38 37 36 35 35 34 34 35 35 35 35 35 35 35 34 34 33 33 33 32 31 30 29 29 28 28 28 27 28 27 27 27 27 27 27 28 28 28 28 28 29 29 29 30 30 32 33 34 35 36 36 37 37 37 37
27 27 28 28 29 29 30 31 32 32 33 34 34 35 36 36 37 37 37 38 39 39 39 39 39 40 40 40 40 40 40 39 38 38 38 38 37 37 36 36 35 34 33 33 32 31 32 31 30 30 29 28 27 27 27 27 27 27 27 27 27 26 26 26 27 27 27 27 28 28 28 29 29 30 31 32 33 34 34 35 35 35 35 35 34
28 28 28 29 29 30 31 31 32 33 34 34 35 36 37 37 38 38 39 39 39 40 41 41 41 41 42 42 42 42 42 41 41 41 42 42 40 38 35 33 31 30 29 30 30 29 29 29 29 28 27 27 26 26 26 26 27 27 26 26 26 26 26 26 26 27 27 27 28 28 28 29 29 30 31 31 32 33 33 33 33 33 32 32 32
28 29 29 29 30 31 31 32 32 33 34 35 36 37 38 38 39 40 40 41 41 41 42 42 42 43 43 43 43 43 42 42 42 42 42 42 42 40 38 36 34 32 31 30 29 29 29 29 29 29 28 28 27 26 26 26 27 27 26 26 26 27 27 27 27 27 28 28 28 28 28 29 29 30 30 31 31 32 32 32 31 30 30 29 29
28 29 29 30 30 31 31 32 32 33 34 35 35 36 38 39 39 40 41 41 42 42 43 43 43 43 43 44 44 44 44 43 43 43 42 42 42 41 40 40 39 38 36 33 32 31 30 29 30 30 30 29 28 28 28 27 27 27 27 27 27 27 27 27 27 27 27 27 27 28 29 29 29 30 30 30 30 31 30 29 29 28 27 27 27
27 28 28 29 29 29 30 30 31 32 33 34 35 36 36 37 39 40 41 41 42 42 43 43 43 43 43 44 44 45 45 45 45 45 44 44 43 43 42 41 40 39 38 37 36 36 34 33 32 32 31 31 31 31 31 30 29 29 29 28 28 28 27 28 28 28 27 27 28 28 29 29 29 29 29 29 29 29 28 27 27 26 26 26 25
25 25 26 26 27 27 28 29 29 30 31 32 33 34 35 36 38 39 40 41 42 42 42 42 42 42 42 42 43 44 44 45 45 45 45 44 44 43 43 42 42 41 40 40 40 40 39 38 37 36 35 35 35 34 34 32 31 31 30 29 29 28 28 29 29 28 28 28 28 28 28 28 28 28 28 28 28 27 26 26 25 24 24 24 23
22 23 23 24 25 26 26 27 28 28 29 30 31 32 33 34 35 37 37 38 39 40 41 41 41 41 41 40 40 41 42 42 43 43 43 43 43 43 42 42 42 42 42 42 43 42 41 40 39 38 37 37 36 35 34 33 32 32 32 31 30 30 30 30 29 29 29 28 28 28 28 27 27 26 26 27 26 25 24 24 23 23 22 22 20
20 21 22 22 23 23 24 24 25 25 26 27 28 29 30 31 32 33 34 35 36 37 38 39 39 39 39 39 39 38 38 39 39 39 39 40 40 40 40 40 41 42 42 42 42 42 41 40 38 37 37 36 35 35 34 32 32 32 32 32 31 31 30 30 29 29 28 28 27 27 26 25 25 25 25 25 24 23 22 22 21 21 20 18 17
18 19 19 20 20 21 21 21 22 23 24 25 26 26 27 28 29 29 30 31 32 33 33 34 36 37 37 37 37 37 36 36 36 36 36 37 37 37 37 38 39 40 40 40 39 39 38 38 37 37 36 35 35 34 33 32 32 32 32 31 30 30 30 29 29 28 27 27 26 26 25 24 24 24 24 23 22 21 21 20 19 18 16 15 15
16 16 17 18 18 19 19 20 21 22 23 23 24 24 25 25 26 26 27 27 28 28 29 29 30 31 33 34 34 34 34 33 33 33 34 34 34 34 34 35 35 36 36 36 35 35 35 35 34 33 32 32 32 32 31 31 31 30 30 29 29 28 28 28 28 27 27 26 26 25 25 25 25 24 23 22 21 20 19 18 17 15 14 13 13
14 15 16 16 17 17 18 19 20 21 21 22 22 23 23 23 23 24 24 24 25 25 24 25 25 26 27 28 29 29 30 30 30 31 31 31 31 31 31 31 31 31 32 31 30 30 31 30 29 28 27 27 27 28 28 28 28 28 27 27 26 26 26 27 27 27 27 27 26 25 25 25 24 23 21 20 19 18 17 16 14 13 12 12 12
14 14 15 15 15 16 17 18 19 19 19 20 20 20 21 21 21 21 22 22 21 21 20 20 20 20 21 22 23 24 25 26 26 27 27 28 28 28 27 27 26 27 27 27 26 26 26 26 26 25 24 24 25 25 25 25 25 25 25 25 25 25 25 25 26 26 26 26 25 25 25 24 23 21 19 18 17 16 15 13 12 11 11 12 12
13 13 13 14 14 14 15 16 17 17 17 17 18 19 19 20 20 20 20 19 18 17 17 17 16 17 17 18 19 20 21 21 22 22 23 24 25 25 25 25 25 25 26 26 25 25 24 23 23 23 23 23 24 24 24 24 24 24 23 24 24 24 25 25 26 26 25 25 24 24 24 22 21 19 17 16 15 14 13 11 11 11 11 11 11
11 12 12 12 12 13 14 14 15 15 15 16 17 18 19 20 20 19 18 17 15 15 14 14 14 14 15 15 16 16 17 18 18 19 18 18 19 20 21 21 22 22 22 23 24 24 24 23 23 23 23 23 23 23 23 23 23 23 23 24 24 24 24 25 25 24 24 24 23 23 22 20 18 17 15 14 13 12 11 10 10 10 10 9 10
10 11 11 11 11 12 13 13 13 14 15 16 17 18 19 19 19 17 15 14 13 12 12 12 13 13 14 14 14 14 15 16 16 16 15 14 13 14 15 16 17 17 17 18 19 21 22 23 23 23 22 22 22 22 22 22 22 22 23 23 23 23 23 23 23 23 22 22 21 20 19 18 16 15 14 13 12 11 10 9 9 9 9 8 9
9 9 9 9 10 11 12 12 12 14 15 15 16 17 18 18 17 15 13 11 10 11 11 11 12 12 12 12 12 13 13 14 15 15 16 16 15 14 15 15 16 16 15 15 16 17 19 20 20 20 20 20 21 21 21 21 22 23 23 23 22 22 22 22 21 21 20 19 18 18 17 15 14 13 13 12 11 10 9 8 8 8 8 8 9
7 7 7 8 9 10 11 11 12 14 14 15 15 16 16 16 15 14 11 9 9 9 10 10 10 10 10 10 10 10 11 12 13 14 16 16 17 17 17 17 17 16 15 15 15 15 16 17 17 18 18 18 18 19 19 20 21 21 22 21 21 20 20 19 18 18 17 16 16 15 14 13 13 12 12 11 10 10 9 8 7 8 8 8 9
6 6 6 7 8 9 10 11 12 13 13 13 14 14 14 14 14 13 11 10 10 10 10 10 10 10 9 8 6 6 6 7 9 11 13 14 14 15 17 17 17 16 15 15 15 15 15 16 16 16 16 16 17 18 18 19 19 19 19 19 18 18 17 17 16 15 14 14 13 13 12 12 11 11 11 11 10 10 9 8 8 8 8 8 8
5 6 6 7 8 8 9 10 11 12 12 12 12 12 12 12 12 13 12 12 11 11 11 11 11 11 10 9 7 4 2 4 6 8 10 11 11 12 13 15 15 15 15 14 14 14 14 14 15 15 15 16 16 17 17 17 17 17 16 16 16 16 15 14 14 13 12 12 11 11 11 11 11 11 11 10 10 10 9 8 8 8 8 8 8
6 6 6 7 7 7 8 9 10 11 11 11 11 11 11 10 11 12 13 12 12 11 11 12 12 11 10 10 9 7 4 1 1 3 6 8 9 10 12 12 13 13 12 12 12 12 12 12 13 13 14 14 15 15 15 15 14 14 14 13 13 13 12 11 11 10 10 10 10 10 10 10 10 10 10 10 10 10 9 9 8 8 8 8 8
6 5 5 6 6 6 6 7 8 9 10 10 10 10 10 10 10 10 11 12 11 11 11 11 11 11 10 10 9 9 8 7 6 5 5 6 7 9 9 10 10 10 10 10 9 9 9 10 10 10 10 10 11 11 11 11 11 11 10 10 10 10 9 9 9 9 9 10 10 10 10 9 9 9 9 9 9 9 9 9 8 8 8 8 8
4 4 4 4 4 4 5 6 7 8 9 10 10 10 10 10 9 9 10 11 11 10 10 10 10 10 10 9 9 8 8 8 8 8 7 7 7 7 7 7 7 7 7 7 7 7 7 7 7 7 7 7 7 7 8 8 8 8 8 8 8 8 7 8 8 8 9 9 9 9 9 9 9 9 9 9 9 9 9 9 9 9 8 8 9
3 3 3 3 3 3 4 5 6 7 8 9 10 10 10 10 10 9 9 10 11 11 10 10 9 9 8 8 8 8 8 8 7 7 7 6 6 5 5 5 5 5 6 6 6 6 6 6 5 5 5 5 5 5 5 5 6 6 6 6 6 6 7 7 7 7 8 8 8 8 8 9 9 9 9 9 10 10 10 10 10 9 9 9 9
2 2 2 2 2 2 3 4 5 6 7 8 9 10 10 10 11 10 10 9 10 10 11 11 10 9 7 7 7 8 8 8 7 7 6 6 5 5 4 4 4 4 4 4 5 5 5 5 5 5 5 4 4 4 4 4 4 5 5 5 5 6 6 6 6 6 7 7 8 8 8 9 9 9 10 10 10 10 11 11 11 10 10 10 10
Wind_Direction
221 222 220 216 212 210 212 216 217 216 215 214 215 217 218 219 223 225 226 226 222 218 217 216 215 213 210 208 208 208 208 210 211 211 207 205 207 209 214 217 219 224 227 226 227 226 223 224 233 243 248 249 251 254 257 259 263 253 231 218 215 219 225 228 232 232 235 239 241 241 239 238 243 250 257 263 261 258 262 268 271 274 277 280 280
221 222 221 218 214 212 214 216 216 215 213 213 215 215 216 218 223 225 226 225 222 218 216 215 215 215 213 211 211 211 212 215 217 219 218 219 222 225 228 230 231 234 236 236 237 238 237 237 241 247 252 253 254 256 258 260 260 253 237 225 223 226 231 234 235 235 239 243 244 244 244 245 250 253 256 263 265 265 268 271 274 276 278 280 281
219 220 218 215 214 215 215 215 213 212 213 215 215 214 216 221 225 226 227 226 223 220 218 218 219 219 215 214 215 216 219 222 223 225 229 232 233 232 234 237 239 240 242 244 245 245 245 245 246 248 249 251 254 258 259 260 258 250 241 237 234 234 237 242 241 237 237 240 242 246 248 250 256 258 260 265 268 270 272 274 275 276 277 278 278
219 220 218 215 214 215 213 211 210 210 211 214 214 215 219 224 227 228 228 227 224 221 219 220 221 219 218 219 221 221 224 227 227 228 232 235 234 233 236 240 243 244 244 245 247 247 247 248 248 249 250 251 254 257 257 256 256 252 246 243 243 245 246 248 247 243 240 239 242 249 253 256 262 262 261 266 272 274 276 278 277 275 274 274 275
222 223 222 220 219 218 216 214 214 214 215 216 218 221 222 223 228 230 229 226 222 221 222 221 220 219 220 223 223 223 224 227 229 232 234 235 234 236 239 243 245 245 246 247 248 249 251 252 251 250 251 252 253 253 252 253 254 254 252 249 249 251 252 251 251 250 247 244 246 253 257 261 268 267 264 268 275 277 279 280 278 276 275 275 276
223 224 224 223 221 221 220 220 220 220 220 220 222 223 222 225 232 234 229 224 221 220 222 221 221 221 223 223 222 223 227 231 234 236 236 234 235 239 242 245 247 248 247 248 250 253 256 256 255 254 252 252 253 251 250 251 252 252 252 252 252 253 253 254 255 253 252 251 254 258 261 265 270 270 268 269 273 277 279 280 280 279 278 279 280
220 221 222 219 217 216 216 218 219 219 220 221 223 225 228 231 233 229 225 223 222 222 223 223 224 225 226 225 225 228 233 237 240 239 237 235 237 240 243 247 250 252 251 252 254 256 258 258 258 257 254 253 254 254 252 250 250 251 252 253 253 252 253 256 257 256 257 260 262 263 266 269 271 271 271 272 274 277 279 280 281 282 281 280 282
216 216 216 214 213 214 213 214 216 219 221 224 225 228 231 229 225 224 224 224 224 225 227 228 229 230 229 229 230 234 238 241 241 240 238 238 240 243 246 249 253 255 256 256 256 257 257 257 258 257 256 255 256 256 254 251 250 250 253 255 255 255 255 257 259 260 262 266 269 269 269 271 274 274 275 276 278 279 280 281 281 283 283 283 284
211 212 213 214 216 216 215 214 215 218 223 227 227 227 224 219 218 222 224 223 224 227 228 229 231 232 233 234 235 238 240 242 243 242 241 242 244 247 250 253 256 257 258 258 258 258 257 257 258 257 256 255 255 255 255 253 251 251 253 255 258 259 260 261 263 265 267 270 272 273 273 274 276 276 277 278 279 280 282 283 283 284 285 285 285
209 211 213 216 218 219 220 219 218 219 222 224 224 222 219 217 219 222 223 223 224 226 227 229 231 234 235 236 237 239 242 244 244 244 245 246 248 250 254 257 258 259 260 260 260 259 257 257 256 254 253 252 253 254 253 253 254 256 256 257 259 261 263 265 266 267 270 271 273 274 275 277 277 277 277 278 280 281 283 284 285 285 286 286 286
211 213 214 217 219 220 222 223 222 222 223 223 223 222 221 222 223 222 222 223 223 225 228 230 232 235 236 237 239 242 244 245 245 247 249 250 252 253 255 257 258 259 261 260 259 257 256 255 253 251 251 251 253 254 253 254 256 259 261 262 264 265 266 267 269 270 271 272 273 275 275 276 277 278 278 279 281 283 284 285 285 286 287 287 287
215 216 218 219 220 222 223 223 223 222 222 223 224 222 222 222 222 221 221 222 224 228 230 232 234 236 238 240 242 244 246 247 248 250 252 253 255 256 256 258 259 261 261 259 256 255 254 252 250 248 249 250 253 256 257 258 260 262 265 267 269 270 271 271 272 272 273 273 274 276 276 276 277 278 279 280 282 284 285 286 286 285 286 286 286
217 220 222 223 223 224 225 224 224 223 223 223 223 222 222 222 222 222 223 226 230 232 235 237 238 239 241 243 245 247 248 250 252 255 257 258 259 260 259 260 260 260 260 258 255 253 252 250 247 247 248 250 254 258 259 261 264 266 269 272 274 276 277 276 276 276 275 275 276 276 277 277 278 278 279 280 282 283 285 285 285 285 285 286 287
222 223 225 226 225 225 226 226 224 223 224 224 224 225 225 225 226 227 228 230 233 236 239 242 243 244 246 247 249 251 252 253 255 257 259 260 261 261 261 260 259 259 258 257 255 253 251 249 247 246 248 251 255 258 260 263 266 269 273 276 278 279 279 279 279 278 277 277 277 277 277 277 277 278 279 281 282 283 284 284 284 284 285 286 287
230 228 228 229 227 227 228 227 226 226 227 228 228 229 230 231 232 233 234 236 239 242 244 245 246 248 249 250 251 253 254 255 257 259 260 261 262 262 260 258 257 258 257 255 254 252 250 249 248 248 250 254 257 259 262 264 267 271 274 277 279 280 280 279 279 279 278 279 278 278 278 277 278 279 280 282 283 284 284 284 284 284 285 286 288
240 238 236 235 232 232 232 231 232 233 233 234 235 235 236 237 237 239 241 243 245 248 250 250 251 251 252 252 253 255 257 258 259 261 262 263 262 260 257 255 255 257 257 255 253 252 251 251 252 253 255 257 259 260 263 266 269 271 274 276 279 280 279 279 279 278 279 279 279 279 278 279 280 281 282 283 284 284 285 285 285 285 285 287 288
249 248 245 241 239 238 236 236 237 237 237 238 241 242 243 243 244 244 245 247 249 252 254 255 256 255 254 254 254 256 258 260 261 262 261 260 259 258 257 256 256 257 257 255 254 253 253 253 254 256 258 260 262 263 265 269 271 272 273 275 277 278 279 279 278 278 279 279 279 280 280 281 282 283 284 284 285 285 285 285 285 285 286 287 288
249 249 249 248 247 245 241 241 243 244 244 246 246 246 246 246 248 249 250 251 253 255 257 257 258 257 256 256 255 257 259 259 259 259 258 258 258 259 259 259 258 259 259 258 257 255 255 255 256 258 260 263 264 265 267 269 271 272 273 274 276 277 278 278 279 279 280 280 280 281 281 282 283 284 284 285 285 285 285 285 285 285 286 287 288
249 249 250 250 251 250 248 249 251 251 251 251 250 250 250 250 252 255 256 256 257 259 259 259 258 257 257 256 256 257 259 258 257 257 258 258 259 260 260 260 260 260 260 260 259 258 258 258 258 260 261 263 265 267 268 270 271 272 273 274 275 275 276 277 278 278 279 280 281 281 282 283 284 284 285 285 285 285 285 285 285 286 287 288 289
253 252 251 250 250 250 250 252 253 253 253 254 255 256 257 257 259 259 259 259 261 261 261 260 259 258 258 259 259 258 258 258 257 257 258 259 260 261 261 260 259 259 259 259 259 259 260 261 262 262 262 264 266 267 268 270 271 272 273 273 273 274 274 275 276 276 278 279 280 281 282 284 284 285 285 285 285 285 286 286 286 287 288 288 289
257 257 256 254 254 253 253 253 253 255 256 258 260 261 263 264 264 264 263 262 262 261 261 260 259 259 259 260 260 259 258 258 258 257 258 259 260 260 260 260 259 259 259 259 260 261 261 262 263 262 263 264 265 267 268 270 271 272 273 274 274 274 275 276 276 277 278 279 280 281 282 283 284 284 285 286 286 287 287 288 288 289 289 289 289
259 260 259 259 260 259 259 260 260 261 263 266 266 266 267 267 267 267 267 266 264 262 260 259 259 259 259 260 260 259 259 258 258 258 258 259 259 259 259 259 259 259 260 260 261 262 263 263 262 261 262 263 264 266 268 270 271 272 273 274 275 275 276 277 277 277 278 279 280 281 282 282 283 284 285 286 287 288 289 289 290 290 290 290 290
261 262 262 263 264 265 265 267 267 267 268 269 268 268 269 269 268 268 269 269 268 266 263 261 260 260 260 260 260 260 259 258 259 259 260 260 259 259 259 259 259 260 260 260 260 261 261 262 261 260 261 263 265 267 268 270 271 272 273 274 275 276 276 276 276 277 278 279 279 280 282 282 283 284 285 286 287 288 289 290 291 291 291 292 292
264 265 265 266 266 267 268 269 270 270 269 267 268 269 269 269 269 269 269 268 269 269 266 264 263 262 262 261 260 259 259 259 260 260 261 261 261 261 261 260 260 259 259 259 259 260 260 260 260 260 261 262 264 266 267 269 270 271 272 274 275 276 276 276 277 278 279 280 281 281 282 283 284 285 285 286 287 288 289 291 292 292 292 293 293
266 268 269 269 269 269 270 270 270 270 269 268 268 269 269 269 270 270 269 269 269 270 269 267 265 264 264 262 262 261 260 260 261 260 260 261 262 262 261 260 259 259 260 260 260 260 260 260 260 260 260 261 262 265 266 267 268 269 271 273 274 275 276 277 278 279 280 281 281 282 283 284 285 285 286 287 288 289 291 292 293 293 293 293 293
269 269 270 270 270 270 271 271 271 271 270 269 269 270 269 269 269 269 269 268 268 268 269 269 267 266 265 264 263 263 262 262 261 259 258 260 261 261 261 261 260 261 262 261 260 259 259 259 259 259 259 261 262 264 264 265 266 268 270 272 273 275 276 277 278 280 280 281 281 282 283 285 286 286 287 288 289 291 293 294 294 294 294 294 295
271 271 271 270 270 270 271 271 271 271 271 271 270 270 269 269 269 269 268 268 267 267 267 267 267 266 266 264 263 263 262 262 259 255 255 258 260 262 263 263 263 264 263 260 258 257 257 257 257 258 259 261 262 262 263 264 265 267 269 271 273 275 276 277 279 280 280 281 282 283 284 285 286 287 288 290 292 294 295 295 295 295 296 296 296
272 272 272 272 272 272 272 272 272 272 271 271 270 270 270 269 269 269 269 269 269 268 268 267 267 266 265 264 263 262 261 260 257 254 255 258 261 264 264 263 263 264 261 256 254 253 253 253 254 255 257 259 260 261 261 262 264 266 268 271 273 275 276 278 280 281 281 282 283 284 285 286 287 288 290 293 295 296 296 297 297 297 297 297 297
273 274 274 274 274 274 274 273 273 272 272 271 271 270 270 270 270 270 269 269 269 269 268 268 267 267 266 265 263 262 261 261 258 256 257 258 260 262 262 260 260 260 257 251 249 248 247 247 247 248 251 254 257 258 259 260 262 266 268 271 272 274 276 279 280 280 281 282 284 285 286 287 288 290 292 295 296 297 297 298 299 299 299 299 298
275 275 276 276 276 276 276 276 275 275 275 274 273 272 271 270 271 271 271 271 270 270 269 269 269 268 267 266 264 263 263 262 260 258 258 259 259 259 258 256 256 257 255 251 247 245 244 244 245 247 251 252 254 255 257 260 263 265 267 269 271 274 277 279 280 280 281 282 284 285 286 288 290 292 294 296 297 298 299 300 300 300 300 300 300
277 277 277 278 278 278 278 278 278 278 278 277 277 276 275 273 272 272 272 272 272 271 270 270 270 269 268 266 264 263 263 263 261 259 259 259 258 257 256 255 255 254 252 250 247 245 245 246 248 250 251 251 253 256 259 261 262 263 265 268 271 274 277 278 278 279 279 282 284 286 288 290 292 293 295 296 297 299 300 300 300 300 300 301 301
278 278 279 279 280 280 281 281 281 282 281 281 280 279 278 276 275 273 273 273 273 272 271 270 270 270 268 267 265 263 261 261 260 259 259 258 257 256 255 254 253 252 250 248 247 247 247 248 250 251 251 253 256 259 260 260 261 261 263 267 271 274 276 276 276 277 279 282 285 287 289 291 292 293 294 296 297 299 299 299 300 301 302 303 303
280 281 282 282 283 284 284 285 285 285 285 284 283 282 281 279 278 276 274 273 273 272 271 270 270 270 269 267 266 264 261 260 259 258 258 257 257 256 256 254 253 251 250 249 249 249 249 250 251 253 254 256 258 259 258 258 259 260 264 267 269 271 273 274 275 277 279 282 285 287 288 290 291 292 293 295 297 298 298 299 300 302 303 304 304
282 284 285 285 286 286 287 287 288 288 287 287 286 284 283 281 280 279 277 276 274 273 271 270 270 269 268 267 266 264 262 260 259 258 257 256 256 255 256 255 253 252 251 251 251 251 251 252 252 253 255 257 258 258 256 256 257 260 263 266 267 269 270 272 275 277 279 282 284 286 287 288 289 290 293 295 296 297 297 298 300 301 303 304 305
284 285 286 287 288 289 289 290 291 292 292 291 290 288 287 285 283 282 280 278 277 275 273 271 270 269 268 266 265 264 263 261 259 257 256 255 254 254 254 253 252 252 252 253 253 252 252 251 251 252 253 255 256 255 254 254 256 259 262 263 265 266 268 271 274 277 279 280 282 284 286 287 288 290 293 294 295 295 295 296 298 299 301 303 305
286 287 288 290 291 292 292 293 295 296 297 297 296 294 292 290 288 286 284 281 280 278 276 274 271 269 267 266 264 263 262 261 259 257 255 254 253 252 253 252 252 251 252 252 252 252 251 250 250 251 253 254 254 253 252 253 255 257 259 260 263 265 267 269 272 274 276 278 281 283 285 287 289 291 293 293 292 292 293 294 295 297 299 302 305
290 291 292 293 293 294 295 297 299 300 301 302 302 301 299 297 295 293 291 288 285 282 280 278 275 270 267 265 263 261 260 259 258 256 255 254 253 252 252 252 251 251 250 251 251 250 249 248 248 249 250 250 249 249 250 251 253 254 257 259 263 266 267 269 270 272 274 276 279 281 284 286 288 291 291 290 289 290 291 292 293 295 297 300 304
293 293 293 293 294 296 299 301 303 305 307 307 307 306 305 303 301 298 296 293 290 286 283 282 280 275 270 266 263 260 258 257 256 255 254 253 252 251 250 249 249 249 249 249 248 246 243 242 243 243 244 245 246 247 248 249 251 253 257 261 265 267 268 268 269 271 272 275 277 280 283 285 286 287 286 285 286 288 289 290 291 292 294 298 302
293 293 293 295 297 300 304 307 310 312 312 313 313 312 311 310 307 304 301 298 295 291 288 286 284 281 276 270 265 261 258 256 255 253 252 251 249 248 246 246 247 246 244 242 240 237 236 237 239 239 239 242 245 246 245 246 249 254 258 262 265 267 267 268 269 270 271 274 277 280 282 282 282 281 279 278 281 284 286 287 287 288 291 295 300
293 294 296 299 302 305 309 313 316 317 318 318 319 319 319 318 315 311 308 305 301 296 293 291 287 284 280 275 269 263 258 255 252 251 250 250 248 245 245 245 245 244 241 238 236 235 235 236 236 236 239 243 244 242 243 246 251 255 260 263 266 267 267 268 268 269 270 273 276 278 278 278 276 274 272 272 275 279 281 282 282 284 288 292 299
296 298 299 303 306 309 313 317 319 321 323 324 325 325 326 325 322 317 313 311 307 302 299 297 293 287 282 278 273 265 258 253 249 247 248 248 245 241 240 240 239 239 238 237 235 234 234 234 236 239 242 243 240 240 244 249 253 257 262 266 267 268 268 268 268 269 270 272 274 274 273 271 269 266 265 266 270 273 275 275 277 281 284 289 298
300 301 302 305 309 313 317 320 322 325 328 328 329 331 332 331 329 326 321 317 313 309 305 303 300 296 290 284 279 270 258 250 246 242 239 238 235 231 228 229 230 231 232 233 233 232 233 235 238 240 240 239 238 241 246 250 253 256 262 266 267 268 268 268 268 269 270 271 271 269 267 264 261 258 257 259 263 267 269 270 273 276 279 288 300
303 305 306 310 313 317 322 326 328 329 330 330 331 335 338 339 339 336 332 327 323 319 315 312 308 304 300 294 288 278 263 250 244 240 236 235 235 232 229 229 230 230 229 231 232 233 234 234 235 235 236 237 240 243 247 250 253 258 262 266 268 269 268 268 268 268 268 268 266 263 260 257 253 251 250 252 256 261 264 265 267 271 278 289 300
304 309 313 317 321 325 329 332 333 332 332 332 335 338 343 347 349 347 345 343 339 335 333 331 325 319 313 305 295 286 271 253 243 238 236 237 239 238 235 232 231 230 229 229 231 232 233 233 232 233 236 239 242 245 249 252 256 259 263 266 267 267 266 265 265 264 263 261 259 255 251 248 245 244 244 246 251 256 258 258 262 271 281 289 296
310 313 318 323 326 329 333 336 338 337 335 336 340 344 349 355 358 359 1 2 0 358 357 355 351 346 341 332 313 292 271 251 240 236 235 235 236 234 230 227 226 226 227 227 228 230 232 233 234 236 238 240 243 247 251 255 257 260 263 264 264 263 262 261 260 258 255 253 249 244 241 239 239 239 240 244 249 253 254 253 260 272 281 287 293
313 314 317 322 325 329 333 337 340 342 342 343 347 351 356 2 7 10 13 14 14 12 11 10 9 9 7 4 359 341 282 248 241 236 231 227 225 221 217 215 217 220 223 225 226 228 231 233 235 238 241 243 246 249 253 256 258 260 260 260 260 260 259 257 254 250 246 242 237 233 232 234 236 237 240 244 249 251 250 250 259 271 278 282 289
308 310 312 316 321 327 333 338 345 350 353 352 353 356 1 7 11 13 16 18 19 18 18 17 18 21 23 24 28 36 47 65 201 212 211 210 208 206 204 205 209 213 217 220 223 226 229 231 235 239 242 245 247 250 252 254 255 256 256 257 257 256 253 248 244 240 235 231 228 227 229 233 236 239 242 245 248 249 247 249 258 269 275 277 283
304 307 311 316 322 328 336 344 352 359 2 3 2 1 4 7 10 13 15 16 19 22 24 24 25 28 33 38 43 50 59 70 82 101 132 160 174 183 189 194 200 205 209 212 216 220 225 229 233 236 240 243 245 246 247 248 249 250 250 250 249 246 241 235 231 227 224 223 224 226 230 234 238 241 244 246 248 248 248 250 257 267 272 274 279
306 309 316 324 330 335 343 352 359 4 10 15 15 13 11 10 11 14 16 17 18 22 25 27 29 32 36 43 50 56 63 72 80 87 98 116 136 152 163 173 181 188 195 201 206 212 220 228 233 235 236 238 240 240 240 240 239 238 237 236 233 229 224 219 217 217 219 221 225 228 232 236 240 243 246 248 250 251 252 252 256 265 272 273 275
302 306 317 332 341 348 357 4 8 12 18 22 25 25 24 21 20 23 25 24 23 24 24 24 26 29 34 41 49 56 62 70 78 86 95 107 121 134 147 160 171 182 191 198 204 209 216 224 230 231 230 229 228 226 225 224 221 218 216 214 210 207 206 207 210 215 219 223 227 231 236 240 243 246 248 250 252 254 256 255 256 262 270 273 272
287 310 331 348 358 4 12 17 19 19 22 25 27 29 30 29 28 30 31 29 28 28 28 26 26 29 34 41 48 54 60 67 74 81 88 97 108 120 133 147 162 175 186 194 199 204 209 212 213 214 215 214 210 206 203 199 194 192 192 192 194 197 202 207 214 220 226 230 233 237 241 245 248 250 252 254 256 257 258 258 258 261 266 271 272